Terminal Aerodrome Forecast
Issued by NWS

Home | Current Version | Previous Version | Graphics & Text | Print | Product List | Glossary On
Versions: 1 2 3 4 5 6 7 8 9 10 11 12 13 14 15 16 17 18 19 20 21 22
000
FTUS43 KABR 310007 AAA
TAFMBG
TAF AMD
KMBG 310007Z 3100/3124 16011KT P6SM SKC
      TEMPO 3100/3102 5SM HZ
     FM311400 30015G23KT P6SM BKN250
     FM312200 33008KT P6SM SKC=

USA.gov is the U.S. government's official web portal to all federal, state and local government web resources and services.